Time,TemperatureF,DewpointF,PressureIn,WindDirection,WindDirectionDegrees,WindSpeedMPH,WindSpeedGustMPH,Humidity,HourlyPrecipIn,Conditions,Clouds,dailyrainin,SoftwareType,DateUTC
2013-01-11 00:04:00,40.9,40.4,29.85,NE,54,6.0,8.1,98,0.14,RA,,0.03,WeatherDisplay:10.37,2013-01-11 06:04:00,
2013-01-11 00:09:00,41.1,40.6,29.85,ESE,105,5.8,9.2,98,0.16,RA,,0.04,WeatherDisplay:10.37,2013-01-11 06:09:00,
2013-01-11 00:15:00,41.3,40.8,29.84,ENE,76,4.7,9.2,98,0.17,RA,,0.05,WeatherDisplay:10.37,2013-01-11 06:15:00,
2013-01-11 00:20:00,41.4,40.9,29.83,East,97,5.6,10.4,98,0.18,RA,,0.06,WeatherDisplay:10.37,2013-01-11 06:20:00,
2013-01-11 00:25:00,41.6,41.1,29.83,East,87,4.2,6.9,98,0.18,RA,,0.06,WeatherDisplay:10.37,2013-01-11 06:25:00,
2013-01-11 00:30:00,41.6,41.1,29.82,NE,49,5.2,9.2,98,0.17,CLR,,0.06,WeatherDisplay:10.37,2013-01-11 06:30:00,
2013-01-11 00:35:00,41.5,41.0,29.81,ENE,63,4.9,9.2,98,0.16,RA,,0.07,WeatherDisplay:10.37,2013-01-11 06:35:00,
2013-01-11 00:40:00,41.8,41.3,29.81,ENE,66,7.1,11.5,98,0.14,RA,,0.07,WeatherDisplay:10.37,2013-01-11 06:40:00,
2013-01-11 00:45:00,42.1,41.6,29.80,ESE,103,5.4,10.4,98,0.11,CLR,,0.07,WeatherDisplay:10.37,2013-01-11 06:45:00,
2013-01-11 00:50:00,42.2,41.7,29.80,ESE,102,6.7,10.4,98,0.09,CLR,,0.07,WeatherDisplay:10.37,2013-01-11 06:50:00,
2013-01-11 00:55:00,42.3,41.8,29.80,East,91,5.5,11.5,98,0.08,CLR,,0.07,WeatherDisplay:10.37,2013-01-11 06:55:00,
2013-01-11 01:00:00,42.4,41.9,29.80,SE,125,2.0,8.1,98,0.07,CLR,,0.07,WeatherDisplay:10.37,2013-01-11 07:00:00,
2013-01-11 01:05:00,42.5,42.0,29.81,East,98,4.1,7.0,98,0.06,RA,,0.10,WeatherDisplay:10.37,2013-01-11 07:05:00,
2013-01-11 01:10:00,42.6,42.1,29.81,SE,142,3.7,5.8,98,0.13,RA,,0.18,WeatherDisplay:10.37,2013-01-11 07:10:00,
2013-01-11 01:15:00,42.5,42.0,29.81,ESE,120,3.7,4.0,98,0.18,RA,,0.24,WeatherDisplay:10.37,2013-01-11 07:15:00,
2013-01-11 01:20:00,42.7,42.2,29.81,SE,132,3.0,4.6,98,0.20,RA,,0.27,WeatherDisplay:10.37,2013-01-11 07:20:00,
2013-01-11 01:26:00,42.9,42.4,29.81,SE,133,6.2,10.4,98,0.22,RA,,0.29,WeatherDisplay:10.37,2013-01-11 07:26:00,
2013-01-11 01:31:00,42.9,42.4,29.81,ENE,72,5.0,6.9,98,0.24,RA,,0.30,WeatherDisplay:10.37,2013-01-11 07:31:00,
2013-01-11 01:36:00,43.1,42.6,29.80,NE,53,5.1,8.1,98,0.25,RA,,0.32,WeatherDisplay:10.37,2013-01-11 07:36:00,
2013-01-11 01:41:00,43.1,42.6,29.80,East,85,4.3,6.9,98,0.26,RA,,0.33,WeatherDisplay:10.37,2013-01-11 07:41:00,
2013-01-11 01:47:00,42.9,42.4,29.80,ESE,122,4.2,8.1,98,0.26,RA,,0.33,WeatherDisplay:10.37,2013-01-11 07:47:00,
2013-01-11 01:52:00,42.6,42.1,29.80,ESE,123,5.2,8.1,98,0.27,RA,,0.34,WeatherDisplay:10.37,2013-01-11 07:52:00,
2013-01-11 01:57:00,42.3,41.8,29.80,ESE,113,4.9,8.1,98,0.28,RA,,0.35,WeatherDisplay:10.37,2013-01-11 07:57:00,
2013-01-11 02:02:00,42.2,41.7,29.79,SE,125,4.6,8.1,98,0.27,RA,,0.35,WeatherDisplay:10.37,2013-01-11 08:02:00,
2013-01-11 02:07:00,42.2,41.7,29.79,East,96,4.0,6.9,98,0.25,RA,,0.36,WeatherDisplay:10.37,2013-01-11 08:07:00,
2013-01-11 02:12:00,42.2,41.7,29.79,East,90,5.1,11.5,98,0.17,RA,,0.36,WeatherDisplay:10.37,2013-01-11 08:12:00,
2013-01-11 02:18:00,42.3,41.8,29.78,SE,130,5.6,6.9,98,0.11,,,0.36,WeatherDisplay:10.37,2013-01-11 08:18:00,
2013-01-11 02:23:00,42.3,41.8,29.77,ENE,62,5.1,9.2,98,0.09,CLR,,0.36,WeatherDisplay:10.37,2013-01-11 08:23:00,
2013-01-11 02:28:00,42.3,41.8,29.76,ENE,73,6.4,8.1,98,0.07,CLR,,0.36,WeatherDisplay:10.37,2013-01-11 08:28:00,
2013-01-11 02:33:00,42.4,41.9,29.76,ESE,103,1.9,4.6,98,0.05,CLR,,0.36,WeatherDisplay:10.37,2013-01-11 08:33:00,
2013-01-11 02:38:00,42.1,41.6,29.75,ENE,67,4.9,8.1,98,0.04,CLR,,0.36,WeatherDisplay:10.37,2013-01-11 08:38:00,
2013-01-11 02:43:00,41.6,41.1,29.75,East,98,4.1,6.9,98,0.03,CLR,,0.36,WeatherDisplay:10.37,2013-01-11 08:43:00,
2013-01-11 02:48:00,41.6,41.1,29.73,East,90,7.0,9.0,98,0.03,CLR,,0.36,WeatherDisplay:10.37,2013-01-11 08:48:00,
2013-01-11 02:53:00,41.9,41.4,29.70,East,90,8.9,12.7,98,0.02,CLR,,0.36,WeatherDisplay:10.37,2013-01-11 08:53:00,
2013-01-11 02:58:00,42.4,41.9,29.69,East,87,8.1,11.5,98,0.01,CLR,,0.36,WeatherDisplay:10.37,2013-01-11 08:58:00,
2013-01-11 03:03:00,43.1,42.6,29.70,East,86,7.5,11.5,98,0.01,CLR,,0.36,WeatherDisplay:10.37,2013-01-11 09:03:00,
2013-01-11 03:08:00,43.9,43.6,29.70,East,82,7.4,10.4,99,0.00,CLR,,0.36,WeatherDisplay:10.37,2013-01-11 09:08:00,
2013-01-11 03:13:00,44.7,44.4,29.69,East,84,8.1,11.5,99,0.00,CLR,,0.36,WeatherDisplay:10.37,2013-01-11 09:13:00,
2013-01-11 03:18:00,45.3,45.0,29.68,NE,50,8.3,11.5,99,0.00,CLR,,0.36,WeatherDisplay:10.37,2013-01-11 09:18:00,
2013-01-11 03:24:00,44.8,44.5,29.68,East,99,6.6,9.2,99,0.00,CLR,,0.36,WeatherDisplay:10.37,2013-01-11 09:24:00,
2013-01-11 03:29:00,45.1,44.8,29.69,ENE,59,5.6,9.2,99,0.00,CLR,,0.36,WeatherDisplay:10.37,2013-01-11 09:29:00,
2013-01-11 03:34:00,45.5,45.2,29.69,NE,55,4.3,6.9,99,0.00,CLR,,0.36,WeatherDisplay:10.37,2013-01-11 09:34:00,
2013-01-11 03:39:00,45.7,45.4,29.69,East,91,3.2,4.6,99,0.00,CLR,,0.36,WeatherDisplay:10.37,2013-01-11 09:39:00,
2013-01-11 03:44:00,45.8,45.5,29.70,SE,126,4.5,6.9,99,0.00,CLR,,0.36,WeatherDisplay:10.37,2013-01-11 09:44:00,
2013-01-11 03:49:00,45.6,45.3,29.71,SSE,155,5.1,11.5,99,0.00,CLR,,0.36,WeatherDisplay:10.37,2013-01-11 09:49:00,
2013-01-11 03:54:00,45.4,45.1,29.72,SSW,205,4.8,6.9,99,0.00,CLR,,0.36,WeatherDisplay:10.37,2013-01-11 09:54:00,
2013-01-11 03:59:00,44.3,44.0,29.74,SSE,160,7.3,10.4,99,0.00,CLR,,0.36,WeatherDisplay:10.37,2013-01-11 09:59:00,
2013-01-11 04:04:00,43.4,42.9,29.73,South,175,4.0,5.8,98,0.00,CLR,,0.36,WeatherDisplay:10.37,2013-01-11 10:04:00,
2013-01-11 04:09:00,43.2,42.7,29.73,SSE,168,3.8,5.8,98,0.00,CLR,,0.36,WeatherDisplay:10.37,2013-01-11 10:09:00,
2013-01-11 04:14:00,43.2,42.7,29.73,SSE,165,2.7,5.8,98,0.00,CLR,,0.36,WeatherDisplay:10.37,2013-01-11 10:14:00,
2013-01-11 04:20:00,43.2,42.7,29.72,SSE,157,3.3,3.5,98,0.00,CLR,,0.36,WeatherDisplay:10.37,2013-01-11 10:20:00,
2013-01-11 04:25:00,43.3,43.0,29.72,SSE,157,3.7,4.6,99,0.00,CLR,,0.36,WeatherDisplay:10.37,2013-01-11 10:25:00,
2013-01-11 04:30:00,43.3,42.8,29.71,SSE,157,3.2,4.6,98,0.00,CLR,,0.36,WeatherDisplay:10.37,2013-01-11 10:30:00,
2013-01-11 04:35:00,43.2,42.9,29.70,SSE,157,2.1,3.5,99,0.00,CLR,,0.36,WeatherDisplay:10.37,2013-01-11 10:35:00,
2013-01-11 04:40:00,43.4,43.1,29.70,SSE,157,3.4,3.5,99,0.00,CLR,,0.36,WeatherDisplay:10.37,2013-01-11 10:40:00,
2013-01-11 04:45:00,43.7,43.4,29.69,SSE,157,2.8,4.0,99,0.00,CLR,,0.36,WeatherDisplay:10.37,2013-01-11 10:45:00,
2013-01-11 04:50:00,44.1,43.8,29.69,SSE,157,2.2,3.5,99,0.00,CLR,,0.36,WeatherDisplay:10.37,2013-01-11 10:50:00,
2013-01-11 04:55:00,43.9,43.6,29.69,SSE,157,2.7,3.5,99,0.00,CLR,,0.36,WeatherDisplay:10.37,2013-01-11 10:55:00,
2013-01-11 05:00:00,43.8,43.5,29.69,SSE,157,2.4,3.5,99,0.00,CLR,,0.36,WeatherDisplay:10.37,2013-01-11 11:00:00,
2013-01-11 05:05:00,43.9,43.6,29.69,SSE,157,2.9,3.5,99,0.00,CLR,,0.36,WeatherDisplay:10.37,2013-01-11 11:05:00,
2013-01-11 05:11:00,44.1,43.8,29.69,SSE,157,3.5,5.8,99,0.00,CLR,,0.36,WeatherDisplay:10.37,2013-01-11 11:11:00,
2013-01-11 05:16:00,44.4,44.1,29.69,SSE,157,3.1,4.6,99,0.00,CLR,,0.36,WeatherDisplay:10.37,2013-01-11 11:16:00,
2013-01-11 05:21:00,44.4,44.1,29.70,SSE,157,2.1,3.5,99,0.00,CLR,,0.36,WeatherDisplay:10.37,2013-01-11 11:21:00,
2013-01-11 05:26:00,44.2,43.9,29.70,SSE,157,2.9,4.0,99,0.00,CLR,,0.36,WeatherDisplay:10.37,2013-01-11 11:26:00,
2013-01-11 05:31:00,43.9,43.6,29.70,SSE,157,1.8,3.5,99,0.00,CLR,,0.36,WeatherDisplay:10.37,2013-01-11 11:31:00,
2013-01-11 05:36:00,43.4,43.1,29.70,SSE,157,1.3,3.5,99,0.00,CLR,,0.36,WeatherDisplay:10.37,2013-01-11 11:36:00,
2013-01-11 05:41:00,43.4,43.1,29.70,South,186,2.4,3.5,99,0.01,RA,,0.37,WeatherDisplay:10.37,2013-01-11 11:41:00,
2013-01-11 05:46:00,43.5,43.2,29.70,South,175,3.9,6.0,99,0.01,RA,,0.37,WeatherDisplay:10.37,2013-01-11 11:46:00,
2013-01-11 05:51:00,43.6,43.3,29.71,South,186,5.0,5.0,99,0.01,CLR,,0.37,WeatherDisplay:10.37,2013-01-11 11:51:00,
2013-01-11 05:56:00,44.2,43.9,29.71,SSW,192,5.5,8.1,99,0.01,CLR,,0.37,WeatherDisplay:10.37,2013-01-11 11:56:00,
2013-01-11 06:01:00,44.7,44.4,29.72,SSW,211,5.3,10.4,99,0.01,CLR,,0.37,WeatherDisplay:10.37,2013-01-11 12:01:00,
2013-01-11 06:06:00,44.7,44.4,29.72,South,186,4.4,8.0,99,0.01,CLR,,0.37,WeatherDisplay:10.37,2013-01-11 12:06:00,
2013-01-11 06:11:00,45.1,44.8,29.71,South,184,4.7,6.9,99,0.01,CLR,,0.37,WeatherDisplay:10.37,2013-01-11 12:11:00,
2013-01-11 06:16:00,45.5,45.2,29.71,SW,232,3.5,4.6,99,0.01,CLR,,0.37,WeatherDisplay:10.37,2013-01-11 12:16:00,
2013-01-11 06:21:00,45.2,44.9,29.71,SW,221,3.6,6.0,99,0.01,CLR,,0.37,WeatherDisplay:10.37,2013-01-11 12:21:00,
2013-01-11 06:27:00,45.6,45.3,29.71,WSW,256,4.9,8.1,99,0.01,CLR,,0.37,WeatherDisplay:10.37,2013-01-11 12:27:00,
2013-01-11 06:32:00,46.5,46.2,29.72,SW,218,8.7,16.1,99,0.01,CLR,,0.37,WeatherDisplay:10.37,2013-01-11 12:32:00,
2013-01-11 06:37:00,46.8,46.5,29.72,WSW,242,10.0,13.8,99,0.01,CLR,,0.37,WeatherDisplay:10.37,2013-01-11 12:37:00,
2013-01-11 06:42:00,46.9,46.6,29.73,SSW,195,12.0,15.0,99,0.00,CLR,,0.37,WeatherDisplay:10.37,2013-01-11 12:42:00,
2013-01-11 06:47:00,46.7,46.4,29.73,SW,234,8.6,14.0,99,0.00,CLR,,0.37,WeatherDisplay:10.37,2013-01-11 12:47:00,
2013-01-11 06:52:00,46.5,46.2,29.72,SW,224,8.9,12.7,99,0.01,RA,,0.38,WeatherDisplay:10.37,2013-01-11 12:52:00,
2013-01-11 06:57:00,46.3,46.0,29.72,WSW,239,5.9,9.2,99,0.01,RA,,0.38,WeatherDisplay:10.37,2013-01-11 12:57:00,
2013-01-11 07:02:00,46.3,46.0,29.72,SW,232,5.4,10.0,99,0.01,,,0.38,WeatherDisplay:10.37,2013-01-11 13:02:00,
2013-01-11 07:07:00,46.3,46.0,29.72,SW,222,4.1,5.8,99,0.01,CLR,,0.38,WeatherDisplay:10.37,2013-01-11 13:07:00,
2013-01-11 07:12:00,46.2,45.9,29.72,SW,231,5.6,8.1,99,0.01,CLR,,0.38,WeatherDisplay:10.37,2013-01-11 13:12:00,
2013-01-11 07:17:00,46.1,45.8,29.73,SW,218,7.6,10.0,99,0.01,CLR,,0.38,WeatherDisplay:10.37,2013-01-11 13:17:00,
2013-01-11 07:23:00,45.9,45.6,29.73,SSW,196,6.3,8.1,99,0.01,CLR,,0.38,WeatherDisplay:10.37,2013-01-11 13:23:00,
2013-01-11 07:28:00,45.8,45.5,29.74,SW,217,5.3,8.0,99,0.01,CLR,,0.38,WeatherDisplay:10.37,2013-01-11 13:28:00,
2013-01-11 07:33:00,45.6,45.3,29.74,SW,220,4.6,6.9,99,0.01,CLR,,0.38,WeatherDisplay:10.37,2013-01-11 13:33:00,
2013-01-11 07:38:00,45.5,45.2,29.74,South,190,5.0,7.0,99,0.01,CLR,,0.38,WeatherDisplay:10.37,2013-01-11 13:38:00,
2013-01-11 07:43:00,45.2,44.9,29.75,SSW,195,7.0,9.2,99,0.01,CLR,,0.38,WeatherDisplay:10.37,2013-01-11 13:43:00,
2013-01-11 07:48:00,44.9,44.6,29.75,SSW,199,7.1,10.4,99,0.01,CLR,,0.38,WeatherDisplay:10.37,2013-01-11 13:48:00,
2013-01-11 07:53:00,44.6,44.3,29.75,SSW,194,7.8,11.5,99,0.00,CLR,,0.38,WeatherDisplay:10.37,2013-01-11 13:53:00,
2013-01-11 07:58:00,44.5,44.2,29.75,SSW,198,7.0,10.4,99,0.00,CLR,,0.38,WeatherDisplay:10.37,2013-01-11 13:58:00,
2013-01-11 08:03:00,44.5,44.2,29.75,SSW,197,8.2,11.5,99,0.00,CLR,,0.38,WeatherDisplay:10.37,2013-01-11 14:03:00,
2013-01-11 08:08:00,44.3,44.0,29.76,WSW,238,5.8,10.4,99,0.00,CLR,,0.38,WeatherDisplay:10.37,2013-01-11 14:08:00,
2013-01-11 08:13:00,44.2,43.9,29.76,SSW,200,7.6,9.2,99,0.00,CLR,,0.38,WeatherDisplay:10.37,2013-01-11 14:13:00,
2013-01-11 08:18:00,44.2,43.9,29.76,SSW,198,8.4,13.0,99,0.00,CLR,,0.38,WeatherDisplay:10.37,2013-01-11 14:18:00,
2013-01-11 08:23:00,44.1,43.8,29.76,South,184,6.4,9.2,99,0.00,CLR,,0.38,WeatherDisplay:10.37,2013-01-11 14:23:00,
2013-01-11 08:28:00,43.9,43.6,29.76,SSW,200,5.5,10.4,99,0.00,CLR,,0.38,WeatherDisplay:10.37,2013-01-11 14:28:00,
2013-01-11 08:33:00,43.8,43.5,29.76,SSW,197,5.3,9.2,99,0.00,CLR,,0.38,WeatherDisplay:10.37,2013-01-11 14:33:00,
2013-01-11 08:38:00,43.9,43.6,29.76,South,175,7.4,10.4,99,0.00,CLR,,0.38,WeatherDisplay:10.37,2013-01-11 14:38:00,
2013-01-11 08:43:00,44.0,43.7,29.77,South,189,6.1,9.2,99,0.00,CLR,,0.38,WeatherDisplay:10.37,2013-01-11 14:43:00,
2013-01-11 08:48:00,43.9,43.6,29.77,SSE,168,7.0,11.5,99,0.00,CLR,,0.38,WeatherDisplay:10.37,2013-01-11 14:48:00,
2013-01-11 08:53:00,43.9,43.6,29.77,SSW,192,8.2,11.5,99,0.00,CLR,,0.38,WeatherDisplay:10.37,2013-01-11 14:53:00,
2013-01-11 08:58:00,43.9,43.6,29.77,South,181,4.8,5.8,99,0.00,CLR,,0.38,WeatherDisplay:10.37,2013-01-11 14:58:00,
2013-01-11 09:03:00,43.9,43.6,29.77,South,182,2.2,5.8,99,0.00,CLR,,0.38,WeatherDisplay:10.37,2013-01-11 15:03:00,
2013-01-11 09:08:00,44.0,43.7,29.77,SW,230,4.2,8.0,99,0.00,CLR,,0.38,WeatherDisplay:10.37,2013-01-11 15:08:00,
2013-01-11 09:13:00,43.9,43.6,29.77,SSW,213,5.6,8.1,99,0.00,CLR,,0.38,WeatherDisplay:10.37,2013-01-11 15:13:00,
2013-01-11 09:18:00,43.8,43.5,29.78,SSE,159,5.1,8.1,99,0.00,CLR,,0.38,WeatherDisplay:10.37,2013-01-11 15:18:00,
2013-01-11 09:23:00,43.8,43.5,29.77,SSE,159,6.7,11.5,99,0.00,CLR,,0.38,WeatherDisplay:10.37,2013-01-11 15:23:00,
2013-01-11 09:28:00,43.8,43.5,29.78,SSE,163,6.7,10.0,99,0.00,CLR,,0.38,WeatherDisplay:10.37,2013-01-11 15:28:00,
2013-01-11 09:33:00,43.8,43.5,29.79,South,185,5.2,8.1,99,0.00,CLR,,0.38,WeatherDisplay:10.37,2013-01-11 15:33:00,
2013-01-11 09:38:00,43.8,43.5,29.79,South,171,5.2,11.5,99,0.00,CLR,,0.38,WeatherDisplay:10.37,2013-01-11 15:38:00,
2013-01-11 09:43:00,43.9,43.6,29.79,South,171,8.1,11.5,99,0.00,CLR,,0.38,WeatherDisplay:10.37,2013-01-11 15:43:00,
2013-01-11 09:48:00,44.0,43.7,29.79,SSW,211,10.1,12.7,99,0.00,CLR,,0.38,WeatherDisplay:10.37,2013-01-11 15:48:00,
2013-01-11 09:53:00,44.0,43.7,29.79,South,171,7.1,10.4,99,0.00,CLR,,0.38,WeatherDisplay:10.37,2013-01-11 15:53:00,
2013-01-11 09:58:00,44.0,43.7,29.79,South,178,6.4,6.9,99,0.00,CLR,,0.38,WeatherDisplay:10.37,2013-01-11 15:58:00,
2013-01-11 10:03:00,44.0,43.7,29.79,South,175,6.4,9.2,99,0.00,CLR,,0.38,WeatherDisplay:10.37,2013-01-11 16:03:00,
2013-01-11 10:08:00,44.0,43.7,29.79,South,169,3.3,6.9,99,0.00,CLR,,0.38,WeatherDisplay:10.37,2013-01-11 16:08:00,
2013-01-11 10:13:00,44.1,43.8,29.78,SSE,147,5.0,5.8,99,0.00,CLR,,0.38,WeatherDisplay:10.37,2013-01-11 16:13:00,
2013-01-11 10:19:00,44.3,44.0,29.78,SSE,162,4.6,6.9,99,0.00,CLR,,0.38,WeatherDisplay:10.37,2013-01-11 16:19:00,
2013-01-11 10:24:00,44.5,44.2,29.78,SSE,163,5.6,10.0,99,0.00,CLR,,0.38,WeatherDisplay:10.37,2013-01-11 16:24:00,
2013-01-11 10:29:00,44.8,44.5,29.78,SSW,192,4.1,6.9,99,0.00,CLR,,0.38,WeatherDisplay:10.37,2013-01-11 16:29:00,
2013-01-11 10:34:00,45.0,44.7,29.77,SSE,163,5.0,8.1,99,0.00,CLR,,0.38,WeatherDisplay:10.37,2013-01-11 16:34:00,
2013-01-11 10:39:00,45.2,44.9,29.77,SE,135,5.2,8.1,99,0.00,CLR,,0.38,WeatherDisplay:10.37,2013-01-11 16:39:00,
2013-01-11 10:44:00,45.3,45.0,29.77,SE,146,6.1,9.2,99,0.00,CLR,,0.38,WeatherDisplay:10.37,2013-01-11 16:44:00,
2013-01-11 10:49:00,45.5,45.2,29.77,South,169,7.0,11.5,99,0.00,CLR,,0.38,WeatherDisplay:10.37,2013-01-11 16:49:00,
2013-01-11 10:54:00,45.6,45.3,29.77,SSE,157,6.3,10.0,99,0.00,CLR,,0.38,WeatherDisplay:10.37,2013-01-11 16:54:00,
2013-01-11 10:59:00,45.7,45.4,29.76,SSE,160,7.7,9.2,99,0.00,CLR,,0.38,WeatherDisplay:10.37,2013-01-11 16:59:00,
2013-01-11 11:04:00,45.8,45.5,29.76,SSE,164,8.8,10.4,99,0.00,CLR,,0.38,WeatherDisplay:10.37,2013-01-11 17:04:00,
2013-01-11 11:09:00,46.0,45.7,29.76,SSE,168,7.9,12.7,99,0.00,CLR,,0.38,WeatherDisplay:10.37,2013-01-11 17:09:00,
2013-01-11 11:15:00,46.1,45.8,29.76,South,171,6.1,9.2,99,0.00,CLR,,0.38,WeatherDisplay:10.37,2013-01-11 17:15:00,
2013-01-11 11:20:00,46.2,45.9,29.76,South,178,8.0,11.5,99,0.00,CLR,,0.38,WeatherDisplay:10.37,2013-01-11 17:20:00,
2013-01-11 11:25:00,46.2,45.9,29.76,South,185,10.1,13.8,99,0.00,CLR,,0.38,WeatherDisplay:10.37,2013-01-11 17:25:00,
2013-01-11 11:30:00,46.2,45.9,29.76,SSW,208,9.0,12.7,99,0.00,CLR,,0.38,WeatherDisplay:10.37,2013-01-11 17:30:00,
2013-01-11 11:35:00,46.2,45.9,29.75,South,177,6.3,12.7,99,0.00,CLR,,0.38,WeatherDisplay:10.37,2013-01-11 17:35:00,
2013-01-11 11:40:00,46.2,45.9,29.75,South,173,8.0,12.7,99,0.00,CLR,,0.38,WeatherDisplay:10.37,2013-01-11 17:40:00,
2013-01-11 11:45:00,46.2,45.9,29.75,SW,217,10.6,17.3,99,0.00,CLR,,0.38,WeatherDisplay:10.37,2013-01-11 17:45:00,
2013-01-11 11:50:00,46.3,46.0,29.75,SSE,153,9.4,13.0,99,0.00,CLR,,0.38,WeatherDisplay:10.37,2013-01-11 17:50:00,
2013-01-11 11:55:00,46.3,46.0,29.75,South,177,8.0,17.3,99,0.00,CLR,,0.38,WeatherDisplay:10.37,2013-01-11 17:55:00,
2013-01-11 12:00:00,46.4,46.1,29.75,SSE,158,9.5,13.8,99,0.00,CLR,,0.38,WeatherDisplay:10.37,2013-01-11 18:00:00,
2013-01-11 12:05:00,46.5,46.2,29.74,SSE,167,9.1,11.5,99,0.00,CLR,,0.38,WeatherDisplay:10.37,2013-01-11 18:05:00,
2013-01-11 12:10:00,46.7,46.4,29.74,South,180,8.9,12.7,99,0.00,CLR,,0.38,WeatherDisplay:10.37,2013-01-11 18:10:00,
2013-01-11 12:16:00,46.8,46.5,29.74,South,169,8.2,11.5,99,0.00,CLR,,0.38,WeatherDisplay:10.37,2013-01-11 18:16:00,
2013-01-11 12:21:00,47.0,46.7,29.73,SSE,149,8.0,11.5,99,0.00,CLR,,0.38,WeatherDisplay:10.37,2013-01-11 18:21:00,
2013-01-11 12:26:00,47.0,46.7,29.73,SSE,148,8.9,11.5,99,0.00,CLR,,0.38,WeatherDisplay:10.37,2013-01-11 18:26:00,
2013-01-11 12:31:00,47.1,46.8,29.72,SSE,166,7.7,10.4,99,0.00,CLR,,0.38,WeatherDisplay:10.37,2013-01-11 18:31:00,
2013-01-11 12:36:00,47.4,47.1,29.72,SSE,158,9.4,11.5,99,0.00,CLR,,0.38,WeatherDisplay:10.37,2013-01-11 18:36:00,
2013-01-11 12:41:00,47.6,47.3,29.72,SSE,158,10.2,11.5,99,0.00,CLR,,0.38,WeatherDisplay:10.37,2013-01-11 18:41:00,
2013-01-11 12:46:00,47.7,47.4,29.72,SSE,155,6.4,11.5,99,0.00,CLR,,0.38,WeatherDisplay:10.37,2013-01-11 18:46:00,
2013-01-11 12:51:00,47.8,47.5,29.72,SSE,165,9.0,13.8,99,0.00,CLR,,0.38,WeatherDisplay:10.37,2013-01-11 18:51:00,
2013-01-11 12:56:00,48.2,47.9,29.72,SE,146,8.0,10.4,99,0.00,CLR,,0.38,WeatherDisplay:10.37,2013-01-11 18:56:00,
2013-01-11 13:02:00,48.4,48.1,29.74,South,178,7.3,11.5,99,0.00,CLR,,0.38,WeatherDisplay:10.37,2013-01-11 19:02:00,
2013-01-11 13:07:00,48.2,47.9,29.74,SSE,158,9.7,15.0,99,0.00,CLR,,0.38,WeatherDisplay:10.37,2013-01-11 19:07:00,
2013-01-11 13:12:00,48.1,47.8,29.74,South,175,8.3,12.7,99,0.00,CLR,,0.38,WeatherDisplay:10.37,2013-01-11 19:12:00,
2013-01-11 13:17:00,48.0,47.7,29.73,SE,144,8.7,11.5,99,0.00,CLR,,0.38,WeatherDisplay:10.37,2013-01-11 19:17:00,
2013-01-11 13:22:00,47.9,47.6,29.73,SSE,157,9.9,16.1,99,0.00,CLR,,0.38,WeatherDisplay:10.37,2013-01-11 19:22:00,
2013-01-11 13:27:00,47.9,47.6,29.73,SSE,147,8.6,12.7,99,0.00,CLR,,0.38,WeatherDisplay:10.37,2013-01-11 19:27:00,
2013-01-11 13:32:00,47.7,47.4,29.73,South,178,10.8,15.0,99,0.00,CLR,,0.38,WeatherDisplay:10.37,2013-01-11 19:32:00,
2013-01-11 13:37:00,47.7,47.4,29.72,SSE,163,7.0,11.5,99,0.00,CLR,,0.38,WeatherDisplay:10.37,2013-01-11 19:37:00,
2013-01-11 13:42:00,47.8,47.5,29.72,SSE,152,13.0,15.0,99,0.00,CLR,,0.38,WeatherDisplay:10.37,2013-01-11 19:42:00,
2013-01-11 13:47:00,47.8,47.5,29.72,South,175,11.8,16.1,99,0.00,CLR,,0.38,WeatherDisplay:10.37,2013-01-11 19:47:00,
2013-01-11 13:52:00,47.8,47.5,29.73,SE,142,10.4,14.0,99,0.00,CLR,,0.38,WeatherDisplay:10.37,2013-01-11 19:52:00,
2013-01-11 13:57:00,47.8,47.5,29.72,South,175,11.8,11.8,99,0.00,CLR,,0.38,WeatherDisplay:10.37,2013-01-11 19:57:00,
2013-01-11 14:02:00,47.8,47.5,29.72,SSE,165,9.8,16.1,99,0.00,CLR,,0.38,WeatherDisplay:10.37,2013-01-11 20:02:00,
2013-01-11 14:07:00,48.1,47.8,29.72,SE,137,6.6,10.4,99,0.00,CLR,,0.38,WeatherDisplay:10.37,2013-01-11 20:07:00,
2013-01-11 14:12:00,48.5,48.2,29.71,SE,125,9.0,10.4,99,0.00,CLR,,0.38,WeatherDisplay:10.37,2013-01-11 20:12:00,
2013-01-11 14:17:00,48.7,48.4,29.71,SE,145,9.3,13.8,99,0.00,CLR,,0.38,WeatherDisplay:10.37,2013-01-11 20:17:00,
2013-01-11 14:23:00,48.7,48.4,29.71,ESE,109,10.2,16.1,99,0.00,CLR,,0.38,WeatherDisplay:10.37,2013-01-11 20:23:00,
2013-01-11 14:28:00,48.9,48.6,29.71,SE,145,8.5,10.4,99,0.00,CLR,,0.38,WeatherDisplay:10.37,2013-01-11 20:28:00,
2013-01-11 14:33:00,49.0,48.7,29.71,SSE,151,12.7,18.4,99,0.00,CLR,,0.38,WeatherDisplay:10.37,2013-01-11 20:33:00,
2013-01-11 14:38:00,49.1,48.8,29.71,SE,145,10.2,11.5,99,0.00,CLR,,0.38,WeatherDisplay:10.37,2013-01-11 20:38:00,
2013-01-11 14:43:00,49.2,48.9,29.71,South,169,13.2,17.3,99,0.00,CLR,,0.38,WeatherDisplay:10.37,2013-01-11 20:43:00,
2013-01-11 14:48:00,49.1,48.8,29.71,SSE,154,9.6,15.0,99,0.00,CLR,,0.38,WeatherDisplay:10.37,2013-01-11 20:48:00,
2013-01-11 14:53:00,49.3,49.0,29.71,SSE,155,10.1,13.8,99,0.00,CLR,,0.38,WeatherDisplay:10.37,2013-01-11 20:53:00,
2013-01-11 14:58:00,49.7,49.4,29.72,SE,130,8.3,12.7,99,0.00,CLR,,0.38,WeatherDisplay:10.37,2013-01-11 20:58:00,
2013-01-11 15:03:00,49.7,49.4,29.70,SE,135,8.7,11.5,99,0.00,CLR,,0.38,WeatherDisplay:10.37,2013-01-11 21:03:00,
2013-01-11 15:08:00,50.2,49.9,29.70,SE,138,13.6,17.3,99,0.00,CLR,,0.38,WeatherDisplay:10.37,2013-01-11 21:08:00,
2013-01-11 15:13:00,50.5,50.2,29.70,SE,131,14.1,17.3,99,0.00,CLR,,0.38,WeatherDisplay:10.37,2013-01-11 21:13:00,
2013-01-11 15:18:00,50.4,49.9,29.70,SE,126,15.1,17.3,98,0.00,CLR,,0.38,WeatherDisplay:10.37,2013-01-11 21:18:00,
2013-01-11 15:23:00,50.3,49.8,29.70,ESE,115,10.0,12.7,98,0.00,CLR,,0.38,WeatherDisplay:10.37,2013-01-11 21:23:00,
2013-01-11 15:28:00,49.9,49.4,29.69,SE,132,11.7,17.3,98,0.00,CLR,,0.38,WeatherDisplay:10.37,2013-01-11 21:28:00,
2013-01-11 15:33:00,49.6,49.1,29.70,SE,144,10.9,13.0,98,0.00,CLR,,0.38,WeatherDisplay:10.37,2013-01-11 21:33:00,
2013-01-11 15:39:00,49.4,48.9,29.70,SE,138,10.6,15.0,98,0.00,CLR,,0.38,WeatherDisplay:10.37,2013-01-11 21:39:00,
2013-01-11 15:44:00,49.2,48.7,29.69,SE,144,11.1,12.7,98,0.00,CLR,,0.38,WeatherDisplay:10.37,2013-01-11 21:44:00,
2013-01-11 15:49:00,49.0,48.2,29.70,SE,138,11.2,17.3,97,0.00,CLR,,0.38,WeatherDisplay:10.37,2013-01-11 21:49:00,
2013-01-11 15:54:00,49.0,48.2,29.70,SE,146,10.4,11.5,97,0.00,CLR,,0.38,WeatherDisplay:10.37,2013-01-11 21:54:00,
2013-01-11 15:59:00,48.9,48.1,29.70,SSE,155,9.0,12.0,97,0.00,CLR,,0.38,WeatherDisplay:10.37,2013-01-11 21:59:00,
2013-01-11 16:04:00,48.9,48.1,29.70,SE,142,11.4,15.0,97,0.00,CLR,,0.38,WeatherDisplay:10.37,2013-01-11 22:04:00,
2013-01-11 16:09:00,48.9,48.1,29.69,ESE,122,11.3,15.0,97,0.00,CLR,,0.38,WeatherDisplay:10.37,2013-01-11 22:09:00,
2013-01-11 16:14:00,48.9,48.1,29.70,SE,128,11.5,13.8,97,0.00,CLR,,0.38,WeatherDisplay:10.37,2013-01-11 22:14:00,
2013-01-11 16:19:00,49.0,48.2,29.69,SE,138,12.1,16.1,97,0.00,CLR,,0.38,WeatherDisplay:10.37,2013-01-11 22:19:00,
2013-01-11 16:24:00,48.9,48.1,29.68,SE,128,12.3,16.1,97,0.00,CLR,,0.38,WeatherDisplay:10.37,2013-01-11 22:24:00,
2013-01-11 16:29:00,48.8,48.0,29.69,SE,132,12.7,16.1,97,0.00,CLR,,0.38,WeatherDisplay:10.37,2013-01-11 22:29:00,
2013-01-11 16:34:00,48.8,48.0,29.69,SE,130,12.1,16.1,97,0.00,CLR,,0.38,WeatherDisplay:10.37,2013-01-11 22:34:00,
2013-01-11 16:39:00,48.6,47.8,29.68,SE,138,10.4,13.0,97,0.00,CLR,,0.38,WeatherDisplay:10.37,2013-01-11 22:39:00,
2013-01-11 16:44:00,48.4,47.6,29.68,SE,128,12.5,15.0,97,0.00,CLR,,0.38,WeatherDisplay:10.37,2013-01-11 22:44:00,
2013-01-11 16:49:00,48.4,47.6,29.68,SE,137,9.2,11.5,97,0.00,CLR,,0.38,WeatherDisplay:10.37,2013-01-11 22:49:00,
2013-01-11 16:54:00,48.5,47.7,29.68,SE,132,11.2,13.8,97,0.00,CLR,,0.38,WeatherDisplay:10.37,2013-01-11 22:54:00,
2013-01-11 16:59:00,48.7,48.2,29.68,SE,135,11.7,18.4,98,0.00,CLR,,0.38,WeatherDisplay:10.37,2013-01-11 22:59:00,
2013-01-11 17:04:00,48.9,48.4,29.68,SSE,150,12.4,18.0,98,0.00,CLR,,0.38,WeatherDisplay:10.37,2013-01-11 23:04:00,
2013-01-11 17:09:00,49.1,48.6,29.68,SE,145,12.6,15.0,98,0.00,CLR,,0.38,WeatherDisplay:10.37,2013-01-11 23:09:00,
2013-01-11 17:14:00,49.2,48.7,29.68,SE,133,14.2,18.4,98,0.00,CLR,,0.38,WeatherDisplay:10.37,2013-01-11 23:14:00,
2013-01-11 17:19:00,49.3,48.5,29.69,SSE,155,12.8,17.3,97,0.00,CLR,,0.38,WeatherDisplay:10.37,2013-01-11 23:19:00,
2013-01-11 17:24:00,49.3,48.5,29.69,SSE,151,12.2,19.6,97,0.00,CLR,,0.38,WeatherDisplay:10.37,2013-01-11 23:24:00,
2013-01-11 17:29:00,49.3,48.5,29.69,ESE,123,13.3,19.6,97,0.00,CLR,,0.38,WeatherDisplay:10.37,2013-01-11 23:29:00,
2013-01-11 17:34:00,49.1,48.3,29.70,SSE,147,9.7,16.1,97,0.00,CLR,,0.38,WeatherDisplay:10.37,2013-01-11 23:34:00,
2013-01-11 17:39:00,49.1,48.3,29.70,SSE,149,10.4,17.3,97,0.00,CLR,,0.38,WeatherDisplay:10.37,2013-01-11 23:39:00,
2013-01-11 17:44:00,49.1,48.3,29.70,SSE,162,10.1,15.0,97,0.00,CLR,,0.38,WeatherDisplay:10.37,2013-01-11 23:44:00,
2013-01-11 17:49:00,49.0,48.2,29.69,SE,140,12.1,16.1,97,0.00,CLR,,0.38,WeatherDisplay:10.37,2013-01-11 23:49:00,
2013-01-11 17:54:00,49.0,48.2,29.69,South,173,9.3,18.4,97,0.00,CLR,,0.38,WeatherDisplay:10.37,2013-01-11 23:54:00,
2013-01-11 17:59:00,48.9,48.1,29.68,SSE,155,10.8,13.8,97,0.00,CLR,,0.38,WeatherDisplay:10.37,2013-01-11 23:59:00,
2013-01-11 18:04:00,49.0,48.2,29.69,SE,133,11.9,15.0,97,0.00,CLR,,0.38,WeatherDisplay:10.37,2013-01-12 00:04:00,
2013-01-11 18:09:00,49.0,48.2,29.68,SE,134,12.3,15.0,97,0.00,CLR,,0.38,WeatherDisplay:10.37,2013-01-12 00:09:00,
2013-01-11 18:14:00,49.0,47.9,29.68,SE,132,9.8,11.5,96,0.00,CLR,,0.38,WeatherDisplay:10.37,2013-01-12 00:14:00,
2013-01-11 18:19:00,48.8,47.7,29.68,SE,146,11.2,18.4,96,0.00,CLR,,0.38,WeatherDisplay:10.37,2013-01-12 00:19:00,
2013-01-11 18:25:00,48.7,47.6,29.68,ESE,123,10.1,12.7,96,0.00,CLR,,0.38,WeatherDisplay:10.37,2013-01-12 00:25:00,
2013-01-11 18:30:00,48.6,47.5,29.69,South,173,10.2,11.5,96,0.00,CLR,,0.38,WeatherDisplay:10.37,2013-01-12 00:30:00,
2013-01-11 18:35:00,48.5,47.4,29.69,SE,145,10.4,12.7,96,0.00,CLR,,0.38,WeatherDisplay:10.37,2013-01-12 00:35:00,
2013-01-11 18:40:00,48.6,47.5,29.69,SSE,148,10.4,12.7,96,0.00,CLR,,0.38,WeatherDisplay:10.37,2013-01-12 00:40:00,
2013-01-11 18:45:00,48.5,47.4,29.69,SE,143,10.6,12.7,96,0.00,CLR,,0.38,WeatherDisplay:10.37,2013-01-12 00:45:00,
2013-01-11 18:50:00,48.5,47.4,29.68,SSE,158,12.4,18.4,96,0.00,CLR,,0.38,WeatherDisplay:10.37,2013-01-12 00:50:00,
2013-01-11 18:55:00,48.4,47.3,29.68,SE,140,11.3,16.1,96,0.00,CLR,,0.38,WeatherDisplay:10.37,2013-01-12 00:55:00,
2013-01-11 19:00:00,48.3,47.2,29.68,SE,136,11.1,15.0,96,0.00,CLR,,0.38,WeatherDisplay:10.37,2013-01-12 01:00:00,
2013-01-11 19:06:00,48.3,47.2,29.67,SE,141,10.8,12.7,96,0.00,CLR,,0.38,WeatherDisplay:10.37,2013-01-12 01:06:00,
2013-01-11 19:11:00,48.2,47.1,29.68,SSE,165,9.9,12.7,96,0.00,CLR,,0.38,WeatherDisplay:10.37,2013-01-12 01:11:00,
2013-01-11 19:16:00,48.3,47.2,29.67,South,173,14.7,19.6,96,0.00,CLR,,0.38,WeatherDisplay:10.37,2013-01-12 01:16:00,
2013-01-11 19:21:00,48.5,47.4,29.68,SE,136,11.3,16.1,96,0.00,CLR,,0.38,WeatherDisplay:10.37,2013-01-12 01:21:00,
2013-01-11 19:26:00,48.6,47.5,29.68,SE,136,9.1,13.8,96,0.00,CLR,,0.38,WeatherDisplay:10.37,2013-01-12 01:26:00,
2013-01-11 19:31:00,48.6,47.5,29.67,SSE,165,11.1,12.7,96,0.00,CLR,,0.38,WeatherDisplay:10.37,2013-01-12 01:31:00,
2013-01-11 19:36:00,48.7,47.6,29.67,SE,146,9.6,12.7,96,0.00,CLR,,0.38,WeatherDisplay:10.37,2013-01-12 01:36:00,
2013-01-11 19:41:00,48.7,47.6,29.68,SSE,164,10.2,13.8,96,0.00,CLR,,0.38,WeatherDisplay:10.37,2013-01-12 01:41:00,
2013-01-11 19:47:00,48.7,47.6,29.68,SSE,165,11.8,12.7,96,0.00,CLR,,0.38,WeatherDisplay:10.37,2013-01-12 01:47:00,
2013-01-11 19:52:00,48.8,47.7,29.68,SE,133,11.3,17.3,96,0.00,CLR,,0.38,WeatherDisplay:10.37,2013-01-12 01:52:00,
2013-01-11 19:57:00,48.8,47.7,29.68,SSE,156,10.6,15.0,96,0.00,CLR,,0.38,WeatherDisplay:10.37,2013-01-12 01:57:00,
2013-01-11 20:02:00,48.8,47.7,29.68,SSE,163,10.5,16.1,96,0.00,CLR,,0.38,WeatherDisplay:10.37,2013-01-12 02:02:00,
2013-01-11 20:07:00,48.8,47.7,29.67,SE,143,10.2,12.7,96,0.00,CLR,,0.38,WeatherDisplay:10.37,2013-01-12 02:07:00,
2013-01-11 20:12:00,48.7,47.6,29.67,SE,144,9.8,12.7,96,0.00,CLR,,0.38,WeatherDisplay:10.37,2013-01-12 02:12:00,
2013-01-11 20:17:00,48.7,47.6,29.67,SE,137,10.9,12.7,96,0.00,CLR,,0.38,WeatherDisplay:10.37,2013-01-12 02:17:00,
2013-01-11 20:22:00,48.8,47.7,29.67,SE,140,8.8,12.7,96,0.00,CLR,,0.38,WeatherDisplay:10.37,2013-01-12 02:22:00,
2013-01-11 20:27:00,48.7,47.3,29.67,SSE,147,10.7,15.0,95,0.00,CLR,,0.38,WeatherDisplay:10.37,2013-01-12 02:27:00,
2013-01-11 20:33:00,48.7,47.3,29.67,SE,138,8.9,11.5,95,0.00,CLR,,0.38,WeatherDisplay:10.37,2013-01-12 02:33:00,
2013-01-11 20:38:00,48.7,47.3,29.67,SE,138,8.9,11.5,95,0.00,CLR,,0.38,WeatherDisplay:10.37,2013-01-12 02:38:00,
2013-01-11 20:43:00,48.6,47.2,29.67,SSE,168,8.0,9.2,95,0.00,CLR,,0.38,WeatherDisplay:10.37,2013-01-12 02:43:00,
2013-01-11 20:48:00,48.5,47.1,29.67,SSE,162,6.6,10.4,95,0.00,CLR,,0.38,WeatherDisplay:10.37,2013-01-12 02:48:00,
2013-01-11 20:53:00,48.5,47.1,29.68,SSE,157,9.1,10.4,95,0.00,CLR,,0.38,WeatherDisplay:10.37,2013-01-12 02:53:00,
2013-01-11 20:58:00,48.4,47.0,29.68,SSE,151,8.1,11.5,95,0.00,CLR,,0.38,WeatherDisplay:10.37,2013-01-12 02:58:00,
2013-01-11 21:03:00,48.3,46.9,29.67,SSE,163,8.7,11.5,95,0.00,CLR,,0.38,WeatherDisplay:10.37,2013-01-12 03:03:00,
2013-01-11 21:08:00,48.3,46.9,29.67,SSE,148,7.2,11.5,95,0.00,CLR,,0.38,WeatherDisplay:10.37,2013-01-12 03:08:00,
2013-01-11 21:14:00,48.2,46.8,29.67,SSE,163,8.6,11.5,95,0.00,CLR,,0.38,WeatherDisplay:10.37,2013-01-12 03:14:00,
2013-01-11 21:19:00,48.4,47.0,29.67,SSE,153,9.3,16.1,95,0.00,CLR,,0.38,WeatherDisplay:10.37,2013-01-12 03:19:00,
2013-01-11 21:24:00,48.8,47.4,29.67,SSE,166,10.7,15.0,95,0.00,CLR,,0.38,WeatherDisplay:10.37,2013-01-12 03:24:00,
2013-01-11 21:29:00,49.1,47.7,29.68,SE,143,11.6,19.6,95,0.00,CLR,,0.38,WeatherDisplay:10.37,2013-01-12 03:29:00,
2013-01-11 21:34:00,49.3,47.6,29.68,South,171,11.8,17.3,94,0.00,CLR,,0.38,WeatherDisplay:10.37,2013-01-12 03:34:00,
2013-01-11 21:39:00,49.4,47.7,29.68,SSE,153,10.5,16.1,94,0.00,CLR,,0.38,WeatherDisplay:10.37,2013-01-12 03:39:00,
2013-01-11 21:44:00,49.4,47.5,29.68,SSE,154,13.7,19.6,93,0.00,CLR,,0.38,WeatherDisplay:10.37,2013-01-12 03:44:00,
2013-01-11 21:49:00,49.5,47.6,29.68,SSE,149,12.9,16.1,93,0.00,CLR,,0.38,WeatherDisplay:10.37,2013-01-12 03:49:00,
2013-01-11 21:55:00,49.4,47.5,29.67,SSE,165,12.6,18.4,93,0.00,CLR,,0.38,WeatherDisplay:10.37,2013-01-12 03:55:00,
2013-01-11 22:00:00,49.3,47.4,29.68,SSE,165,11.0,15.0,93,0.00,CLR,,0.38,WeatherDisplay:10.37,2013-01-12 04:00:00,
2013-01-11 22:05:00,49.2,47.3,29.68,SSE,159,10.6,15.0,93,0.00,CLR,,0.38,WeatherDisplay:10.37,2013-01-12 04:05:00,
2013-01-11 22:10:00,49.2,47.3,29.68,SSE,160,11.5,15.0,93,0.00,CLR,,0.38,WeatherDisplay:10.37,2013-01-12 04:10:00,
2013-01-11 22:15:00,49.1,47.2,29.68,SSE,162,9.5,15.0,93,0.00,CLR,,0.38,WeatherDisplay:10.37,2013-01-12 04:15:00,
2013-01-11 22:20:00,49.0,47.1,29.68,SSE,154,10.5,12.7,93,0.00,CLR,,0.38,WeatherDisplay:10.37,2013-01-12 04:20:00,
2013-01-11 22:25:00,49.0,47.1,29.68,SSE,167,10.3,18.4,93,0.00,CLR,,0.38,WeatherDisplay:10.37,2013-01-12 04:25:00,
2013-01-11 22:30:00,48.9,47.0,29.68,SSE,159,13.7,17.3,93,0.00,CLR,,0.38,WeatherDisplay:10.37,2013-01-12 04:30:00,
2013-01-11 22:35:00,48.9,47.0,29.68,SSE,157,11.9,16.1,93,0.00,CLR,,0.38,WeatherDisplay:10.37,2013-01-12 04:35:00,
2013-01-11 22:40:00,48.9,47.0,29.68,SSE,150,10.8,16.0,93,0.00,CLR,,0.38,WeatherDisplay:10.37,2013-01-12 04:40:00,
2013-01-11 22:45:00,48.9,47.0,29.67,SSE,166,10.3,13.8,93,0.00,CLR,,0.38,WeatherDisplay:10.37,2013-01-12 04:45:00,
2013-01-11 22:50:00,48.9,47.0,29.68,SSE,158,11.3,13.8,93,0.00,CLR,,0.38,WeatherDisplay:10.37,2013-01-12 04:50:00,
2013-01-11 22:55:00,48.9,47.0,29.68,SE,146,11.8,16.0,93,0.00,CLR,,0.38,WeatherDisplay:10.37,2013-01-12 04:55:00,
2013-01-11 23:01:00,49.0,47.1,29.68,SSE,165,12.0,15.0,93,0.00,CLR,,0.38,WeatherDisplay:10.37,2013-01-12 05:01:00,
2013-01-11 23:02:00,49.1,47.2,29.68,SSE,164,12.2,17.3,93,0.00,CLR,,0.38,WeatherDisplay:10.37,2013-01-12 05:02:00,
2013-01-11 23:07:00,49.1,47.2,29.67,South,178,11.1,17.3,93,0.00,CLR,,0.38,WeatherDisplay:10.37,2013-01-12 05:07:00,
2013-01-11 23:12:00,49.0,47.1,29.68,South,175,10.6,12.7,93,0.00,CLR,,0.38,WeatherDisplay:10.37,2013-01-12 05:12:00,
2013-01-11 23:17:00,49.2,47.3,29.68,South,178,10.8,12.7,93,0.00,CLR,,0.38,WeatherDisplay:10.37,2013-01-12 05:17:00,
2013-01-11 23:22:00,49.3,47.4,29.68,SSE,167,11.5,16.1,93,0.00,CLR,,0.38,WeatherDisplay:10.37,2013-01-12 05:22:00,
2013-01-11 23:27:00,49.2,47.3,29.68,South,173,10.6,14.0,93,0.00,CLR,,0.38,WeatherDisplay:10.37,2013-01-12 05:27:00,
2013-01-11 23:33:00,49.2,47.3,29.69,South,169,10.9,13.8,93,0.00,CLR,,0.38,WeatherDisplay:10.37,2013-01-12 05:33:00,
2013-01-11 23:38:00,49.1,47.2,29.68,South,169,12.0,17.3,93,0.00,CLR,,0.38,WeatherDisplay:10.37,2013-01-12 05:38:00,
2013-01-11 23:43:00,49.1,47.2,29.69,SSE,148,10.6,15.0,93,0.00,CLR,,0.38,WeatherDisplay:10.37,2013-01-12 05:43:00,
2013-01-11 23:48:00,49.4,47.5,29.69,South,172,12.1,16.1,93,0.00,CLR,,0.38,WeatherDisplay:10.37,2013-01-12 05:48:00,
2013-01-11 23:53:00,49.5,47.3,29.68,South,178,13.3,17.0,92,0.00,CLR,,0.38,WeatherDisplay:10.37,2013-01-12 05:53:00,
2013-01-11 23:58:00,49.4,47.2,29.68,SSE,155,11.5,16.1,92,0.00,CLR,,0.38,WeatherDisplay:10.37,2013-01-12 05:58:00,